SJ-11-01

导读

实践十一号01星(SJ-11-01)是中国实践系列卫星中的一颗,由中国航天科技集团所属东方红卫星公司研制生产,于北京时间2009年11月12日在酒泉卫星发射中心,由长征二号丙运载火箭送入预定轨道。作为空间科学试验卫星,它主要承担空间科学与技术试验任务,截至目前卫星仍在正常使用中,是中国长征系列运载火箭第119次飞行任务。

基本信息
目录编号:
36088
目录名称:
SJ-11-01
国际标识:
2009-061A
轨道中心:
EARTH
卫星名称:
SJ-11-01
卫星全名:
--
卫星状态:
在轨 (已飞行6150 天)
发射日期:
2009-11-12 UTC
国别 :
中国 (CN)
星等 :
--
该卫星已列入 空间交会检测服务 Space Conjunction Data Service (SCDS) ,当前飞行风险评估等级: 无高风险
轨道信息
数据来源 国际轨道数据 AOE轨道数据
星历时间 2026-09-14T13:02:16+0800
5小时前
查看轨道信息
2026-09-11T08:00:00+0800
3天前
查看轨道信息
半长轴 7059.204km 7059.186km
偏心率 0.0012192 0.0012331
轨道倾角 98.016° 98.017°
近地点辐角 99.596° 109.921°
升交点赤经 235.720° 232.596°
平近点角 30.260° 35.366°
近地点 672.46km 672.344km
远地点 689.674km 689.754km
周期 98.377分钟 98.377分钟
每日圈数 14.637577 14.637632
详细信息
使用方式:
暂无
2D轨道图
3D轨道图
轨道高度分析图
轨道倾角分析图
轨道综合分析图
查看轨道综合分析图
交会数据列表
事件ID 空间交会对象 最接近时刻(TCA) 交会距离 交会风险概率(CRP) 交会风险指数(CRI) 操作
CDM_260915-083401-256003-608826
SJ-11-01 (36088)
2026-09-15T
08:34:03+0000
2.333 km
极远距离
1.992923E-6 低风险 0.41
与全量物体交会距离演化趋势 订阅飞行安全评估服务
与全量物体交会风险概率演化趋势 订阅飞行安全评估服务